Location: Chmeln�
(49.6483°N, 14.9871°E)
Time: 07:51:48
(UTC+00:00)

Cosmos 1867 - Pass Details

Date: 18 September 2020
Orbit: 777 x 799 km, 65.0° (Epoch: 24 October)

Event Time Altitude Azimuth Distance (km) Brightness Sun altitude
Rises 18:25:59 0° 319° (NW) 3,314 7.9 -13.5°
Reaches altitude 10° 18:28:25 10° 317° (NW) 2,381 7.1 -13.9°
Maximum altitude 18:33:51 68° 236° (SW) 862 3.9 -14.7°
Enters shadow 18:38:38 13° 155° (SSE) 2,130 5.4 -15.4°
